Location: Prairie Dale
(45.6972°N, 104.5033°W)
Time: 15:40:39
(UTC+00:00)

ESTCUBE 1 - Pass Details

Date: 05 July 2022
Orbit: 646 x 657 km, 97.9° (Epoch: 07 August)

Event Time Altitude Azimuth Distance (km) Brightness Sun altitude
Exits shadow 03:50:26 - 111° (ESE) 2,141 ? -8.8°
Reaches altitude 10° 03:50:45 10° 108° (ESE) 2,047 ? -8.9°
Maximum altitude 03:53:55 19° 63° (ENE) 1,522 ? -9.2°
Drops below altitude 10° 03:57:06 10° 18° (NNE) 2,061 ? -9.6°
Sets 03:59:50 0° 1° (N) 2,979 ? -9.9°
